Location: Newark
(39.0622°N, 106.5590°E)
Time: 11:22:41
(UTC+00:00)

Vanguard 2 Rocket - Pass Details

Date: 29 January 2020
Orbit: 553 x 3327 km, 32.9° (Epoch: 26 February)

Event Time Altitude Azimuth Distance (km) Brightness Sun altitude
Rises 22:35:20 0° 258° (WSW) 2,745 - -17.1°
Reaches altitude 10° 22:37:24 10° 251° (WSW) 1,925 - -16.8°
Exits shadow 22:38:53 21° 239° (WSW) 1,410 7.5 -16.5°
Maximum altitude 22:41:24 42° 179° (S) 1,020 7.2 -16.0°
Drops below altitude 10° 22:47:05 10° 110° (ESE) 2,744 10.7 -14.9°
Sets 22:50:36 0° 105° (ESE) 4,104 12.2 -14.2°
